User: anonymous   Login
Location: NJAA Observatory
(40.6819°N, 74.8979°W)
Time: 23:30:48
(UTC-05:00)
Language:

Meteor 2-9 Rocket - Orbit

View from above orbital plane
View from above orbital plane
View from above satellite
View from above satellite

Ground track
Ground track

The orbit data is extracted from the following two-line orbital elements,

1 13719U 82116B   16041.22157498 -.00000017  00000-0 -14736-4 0  9994
2 13719  81.2555 123.2857 0070977 319.5615  69.4689 14.14571938710673
Epoch (UTC): 10 February 2016 05:19:04
Eccentricity: 0.0070977
inclination: 81.2555°
perigee height: 792 km
apogee height: 895 km
right ascension of ascending node: 123.2857°
argument of perigee: 319.5615°
revolutions per day: 14.14571938
mean anomaly at epoch: 69.4689°
orbit number at epoch: 71067

The dashed part of the orbit path shows where the satellite is in the earth's shadow,  

DLR